TimeCST,TemperatureF,Dew PointF,Humidity,Sea Level PressureIn,VisibilityMPH,Wind Direction,Wind SpeedMPH,Gust SpeedMPH,PrecipitationIn,Events,Conditions,WindDirDegrees,DateUTC
12:15 AM,30.2,21.2,69,29.94,7.0,ENE,12.7,-,N/A,,Partly Cloudy,60,2012-12-25 06:15:00
12:35 AM,30.2,21.2,69,29.95,7.0,ENE,9.2,-,N/A,,Clear,60,2012-12-25 06:35:00
12:55 AM,28.4,21.2,74,29.95,7.0,NE,11.5,-,N/A,,Clear,50,2012-12-25 06:55:00
1:15 AM,28.4,21.2,74,29.95,6.0,NE,13.8,-,N/A,,Clear,50,2012-12-25 07:15:00
1:35 AM,28.4,21.2,74,29.96,7.0,NE,10.4,-,N/A,,Clear,50,2012-12-25 07:35:00
1:55 AM,28.4,19.4,69,29.96,7.0,NE,5.8,-,N/A,,Clear,40,2012-12-25 07:55:00
2:35 AM,26.6,19.4,74,29.97,7.0,ENE,9.2,-,N/A,,Clear,60,2012-12-25 08:35:00
2:55 AM,26.6,19.4,74,29.97,7.0,NE,13.8,17.3,N/A,,Clear,50,2012-12-25 08:55:00
3:35 AM,26.6,19.4,74,29.96,7.0,NE,9.2,16.1,N/A,,Clear,50,2012-12-25 09:35:00
3:55 AM,26.6,19.4,74,29.96,7.0,ENE,9.2,-,N/A,,Clear,70,2012-12-25 09:55:00
4:15 AM,26.6,19.4,74,29.95,6.0,ENE,15.0,-,N/A,,Partly Cloudy,60,2012-12-25 10:15:00
4:35 AM,26.6,19.4,74,29.94,6.0,NE,9.2,-,N/A,,Scattered Clouds,40,2012-12-25 10:35:00
4:55 AM,26.6,19.4,74,29.95,6.0,NE,9.2,-,N/A,,Partly Cloudy,50,2012-12-25 10:55:00
5:15 AM,26.6,19.4,74,29.95,6.0,ENE,11.5,-,N/A,,Clear,60,2012-12-25 11:15:00
5:55 AM,26.6,19.4,74,29.97,6.0,NE,13.8,-,N/A,,Mostly Cloudy,50,2012-12-25 11:55:00
6:15 AM,26.6,19.4,74,29.97,6.0,ENE,12.7,-,N/A,,Overcast,60,2012-12-25 12:15:00
6:35 AM,26.6,19.4,74,29.99,6.0,ENE,9.2,-,N/A,,Overcast,70,2012-12-25 12:35:00
6:55 AM,26.6,19.4,74,29.99,6.0,ENE,9.2,-,N/A,,Overcast,60,2012-12-25 12:55:00
7:15 AM,26.6,19.4,74,29.99,6.0,ENE,10.4,17.3,N/A,,Overcast,60,2012-12-25 13:15:00
7:55 AM,26.6,19.4,74,29.96,5.0,ENE,15.0,18.4,N/A,,Mostly Cloudy,70,2012-12-25 13:55:00
8:15 AM,26.6,19.4,74,29.96,5.0,ENE,13.8,17.3,N/A,,Partly Cloudy,70,2012-12-25 14:15:00
8:35 AM,26.6,19.4,74,29.95,5.0,NE,13.8,18.4,N/A,,Partly Cloudy,50,2012-12-25 14:35:00
8:55 AM,26.6,19.4,74,29.95,5.0,ENE,13.8,21.9,N/A,,Mostly Cloudy,60,2012-12-25 14:55:00
9:15 AM,28.4,19.4,69,29.95,6.0,ENE,15.0,19.6,N/A,,Partly Cloudy,60,2012-12-25 15:15:00
9:35 AM,28.4,19.4,69,29.94,6.0,NE,13.8,-,N/A,,Mostly Cloudy,50,2012-12-25 15:35:00
9:55 AM,28.4,19.4,69,29.93,7.0,NE,13.8,21.9,N/A,,Overcast,40,2012-12-25 15:55:00
10:35 AM,28.4,19.4,69,29.92,8.0,NE,16.1,19.6,N/A,,Overcast,40,2012-12-25 16:35:00
10:55 AM,28.4,19.4,69,29.92,9.0,ENE,12.7,20.7,N/A,,Overcast,60,2012-12-25 16:55:00
11:35 AM,28.4,17.6,64,29.90,10.0,NE,16.1,25.3,N/A,,Overcast,50,2012-12-25 17:35:00
11:55 AM,28.4,17.6,64,29.90,10.0,ENE,15.0,24.2,N/A,,Overcast,60,2012-12-25 17:55:00
12:15 PM,28.4,17.6,64,29.90,10.0,NE,19.6,24.2,N/A,,Overcast,50,2012-12-25 18:15:00
12:35 PM,30.2,17.6,60,29.89,10.0,ENE,13.8,21.9,N/A,,Mostly Cloudy,60,2012-12-25 18:35:00
12:55 PM,30.2,17.6,60,29.89,10.0,NE,18.4,21.9,N/A,,Partly Cloudy,40,2012-12-25 18:55:00
1:15 PM,30.2,19.4,64,29.90,10.0,NNE,16.1,24.2,N/A,,Clear,30,2012-12-25 19:15:00
1:35 PM,30.2,19.4,64,29.89,10.0,NNE,12.7,23.0,N/A,,Clear,30,2012-12-25 19:35:00
1:55 PM,30.2,19.4,64,29.89,10.0,NNE,18.4,28.8,N/A,,Partly Cloudy,30,2012-12-25 19:55:00
2:15 PM,30.2,19.4,64,29.91,10.0,NE,18.4,21.9,N/A,,Scattered Clouds,40,2012-12-25 20:15:00
2:35 PM,30.2,19.4,64,29.92,10.0,NE,16.1,24.2,N/A,,Mostly Cloudy,40,2012-12-25 20:35:00
3:35 PM,30.2,19.4,64,29.90,10.0,NNE,18.4,35.7,N/A,,Partly Cloudy,20,2012-12-25 21:35:00
3:55 PM,30.2,19.4,64,29.90,10.0,NNE,20.7,31.1,N/A,,Clear,20,2012-12-25 21:55:00
4:15 PM,30.2,19.4,64,29.92,10.0,NNE,20.7,27.6,N/A,,Mostly Cloudy,20,2012-12-25 22:15:00
4:35 PM,30.2,19.4,64,29.91,10.0,NE,23.0,28.8,N/A,,Overcast,40,2012-12-25 22:35:00
4:55 PM,30.2,19.4,64,29.92,10.0,NNE,18.4,24.2,N/A,,Overcast,30,2012-12-25 22:55:00
5:15 PM,30.2,19.4,64,29.92,10.0,NNE,19.6,28.8,N/A,,Overcast,20,2012-12-25 23:15:00
5:35 PM,30.2,19.4,64,29.92,10.0,NNE,21.9,32.2,N/A,,Overcast,30,2012-12-25 23:35:00
5:55 PM,30.2,19.4,64,29.93,10.0,NNE,23.0,33.4,N/A,,Overcast,20,2012-12-25 23:55:00
6:15 PM,30.2,19.4,64,29.94,10.0,NE,20.7,27.6,N/A,,Overcast,40,2012-12-26 00:15:00
6:35 PM,28.4,19.4,69,29.95,10.0,NNE,19.6,29.9,N/A,,Overcast,20,2012-12-26 00:35:00
6:55 PM,28.4,19.4,69,29.95,10.0,NNE,19.6,27.6,N/A,,Overcast,30,2012-12-26 00:55:00
7:15 PM,28.4,19.4,69,29.95,10.0,NNE,17.3,27.6,N/A,,Overcast,20,2012-12-26 01:15:00
7:35 PM,28.4,19.4,69,29.96,10.0,NNE,17.3,24.2,N/A,,Overcast,20,2012-12-26 01:35:00
7:55 PM,28.4,19.4,69,29.96,10.0,NNE,16.1,27.6,N/A,,Overcast,20,2012-12-26 01:55:00
8:35 PM,28.4,19.4,69,29.96,10.0,NNE,18.4,24.2,N/A,,Overcast,30,2012-12-26 02:35:00
8:55 PM,26.6,19.4,74,29.96,10.0,NNE,20.7,28.8,N/A,,Overcast,20,2012-12-26 02:55:00
9:15 PM,26.6,17.6,69,29.97,10.0,North,21.9,27.6,N/A,,Overcast,10,2012-12-26 03:15:00
9:35 PM,26.6,17.6,69,29.97,10.0,NNE,13.8,31.1,N/A,,Overcast,20,2012-12-26 03:35:00
9:55 PM,26.6,19.4,74,29.98,10.0,NNE,12.7,21.9,N/A,,Overcast,20,2012-12-26 03:55:00
10:35 PM,24.8,17.6,74,29.99,10.0,North,17.3,25.3,N/A,,Overcast,10,2012-12-26 04:35:00
10:55 PM,24.8,17.6,74,29.99,10.0,North,17.3,24.2,N/A,,Overcast,360,2012-12-26 04:55:00
11:15 PM,24.8,15.8,69,29.99,10.0,North,12.7,24.2,N/A,,Overcast,360,2012-12-26 05:15:00
11:35 PM,24.8,15.8,69,30.00,10.0,North,16.1,25.3,N/A,,Overcast,10,2012-12-26 05:35:00
11:55 PM,24.8,15.8,69,29.99,10.0,North,19.6,25.3,N/A,,Overcast,360,2012-12-26 05:55:00